| time (UTC) | temp F | wind direction | speed knots | gust knots | rain 1hr in | rain 24hr in | rain mn in | humidity % | barometer mb |
| 20260504001530 | 57 | 287 | 0.0 | 0.0 | 0.00 | 0.00 | 0.00 | 47 | 1012.2 |
| 20260504000026 | 57 | 134 | 0.0 | 0.0 | 0.00 | 0.00 | 0.00 | 47 | 1012.2 |
| 20260503234526 | 58 | 235 | 0.0 | 0.0 | 0.00 | 0.00 | 0.00 | 46 | 1012.2 |
| 20260503233034 | 58 | 293 | 0.0 | 0.0 | 0.00 | 0.00 | 0.00 | 45 | 1012.3 |
| 20260503231523 | 58 | 233 | 0.0 | 0.0 | 0.00 | 0.00 | 0.00 | 44 | 1012.4 |
| 20260503230022 | 58 | 196 | 0.0 | 0.0 | 0.00 | 0.00 | 0.00 | 44 | 1012.4 |
| 20260503224522 | 59 | 256 | 0.0 | 0.0 | 0.00 | 0.00 | 0.00 | 45 | 1012.5 |
| 20260503223020 | 59 | 244 | 0.0 | 0.0 | 0.00 | 0.00 | 0.00 | 44 | 1012.5 |
| 20260503221527 | 59 | 232 | 0.0 | 0.0 | 0.00 | 0.00 | 0.00 | 44 | 1012.5 |
| 20260503220021 | 59 | 227 | 0.0 | 0.0 | 0.00 | 0.00 | 0.00 | 44 | 1012.5 |
| 20260503214520 | 59 | 245 | 0.0 | 0.0 | 0.00 | 0.00 | 0.00 | 43 | 1012.6 |
| 20260503213023 | 59 | 171 | 0.0 | 0.0 | 0.00 | 0.00 | 0.00 | 43 | 1012.5 |
| 20260503211519 | 60 | 250 | 0.0 | 0.0 | 0.00 | 0.00 | 0.00 | 41 | 1012.4 |
| 20260503210018 | 60 | 264 | 0.0 | 0.0 | 0.00 | 0.00 | 0.00 | 41 | 1012.4 |
| 20260503204518 | 60 | 252 | 0.0 | 0.0 | 0.00 | 0.00 | 0.00 | 42 | 1012.5 |
| 20260503203016 | 60 | 194 | 0.0 | 0.0 | 0.00 | 0.00 | 0.00 | 41 | 1012.7 |
| 20260503201512 | 61 | 221 | 0.0 | 0.0 | 0.00 | 0.00 | 0.00 | 40 | 1012.8 |
| 20260503200011 | 61 | 278 | 0.0 | 0.0 | 0.00 | 0.00 | 0.00 | 42 | 1013.1 |
| 20260503194509 | 61 | 274 | 0.0 | 0.0 | 0.00 | 0.00 | 0.00 | 41 | 1013.3 |
| 20260503193004 | 60 | 196 | 0.0 | 0.0 | 0.00 | 0.00 | 0.00 | 42 | 1013.4 |
| 20260503191502 | 59 | 248 | 0.0 | 0.0 | 0.00 | 0.00 | 0.00 | 43 | 1013.8 |
| 20260503184600 | 59 | 266 | 0.0 | 0.0 | 0.00 | 0.00 | 0.00 | 42 | 1014.2 |
| 20260503183057 | 58 | 229 | 0.0 | 0.0 | 0.00 | 0.00 | 0.00 | 45 | 1014.3 |
| 20260503181555 | 59 | 259 | 0.0 | 0.0 | 0.00 | 0.00 | 0.00 | 42 | 1014.4 |
| 20260503180100 | 59 | 269 | 0.0 | 0.0 | 0.00 | 0.00 | 0.00 | 45 | 1014.6 |
| 20260503174554 | 58 | 224 | 0.0 | 0.0 | 0.00 | 0.00 | 0.00 | 44 | 1014.8 |
| 20260503173048 | 57 | 293 | 0.0 | 0.0 | 0.00 | 0.00 | 0.00 | 45 | 1015.1 |
| 20260503171549 | 58 | 199 | 0.0 | 0.0 | 0.00 | 0.00 | 0.00 | 46 | 1015.2 |
| 20260503081513 | 30 | 136 | 0.0 | 0.0 | 0.00 | 0.02 | 0.00 | 95 | 1016.7 |
| 20260503071508 | 31 | 136 | 0.0 | 0.0 | 0.00 | 0.03 | 0.00 | 95 | 1016.6 |
| 20260503060125 | 33 | 262 | 0.0 | 0.0 | 0.00 | 0.03 | 0.00 | 93 | 1016.9 |
| 20260503054601 | 34 | 262 | 0.0 | 0.0 | 0.00 | 0.03 | 0.00 | 93 | 1017.0 |
| 20260503053053 | 35 | 262 | 0.0 | 0.0 | 0.00 | 0.03 | 0.00 | 92 | 1017.1 |
| 20260503051552 | 35 | 262 | 0.0 | 0.0 | 0.00 | 0.03 | 0.00 | 91 | 1017.2 |
| 20260503050046 | 36 | 262 | 0.0 | 0.0 | 0.00 | 0.03 | 0.00 | 90 | 1017.2 |
| 20260503044544 | 37 | 262 | 0.0 | 0.0 | 0.00 | 0.03 | 0.00 | 89 | 1017.3 |
| 20260503043043 | 38 | 262 | 0.0 | 0.0 | 0.00 | 0.03 | 0.00 | 88 | 1017.3 |
| 20260503041542 | 38 | 262 | 0.0 | 0.0 | 0.00 | 0.03 | 0.00 | 88 | 1017.3 |
| 20260503040049 | 38 | 262 | 0.0 | 0.0 | 0.00 | 0.03 | 0.00 | 88 | 1017.3 |
| 20260503034536 | 38 | 262 | 0.0 | 0.0 | 0.00 | 0.03 | 0.03 | 89 | 1017.4 |
| 20260503033039 | 38 | 275 | 0.0 | 0.0 | 0.00 | 0.03 | 0.03 | 88 | 1017.5 |
| 20260503031536 | 38 | 276 | 0.0 | 0.0 | 0.00 | 0.03 | 0.03 | 88 | 1017.5 |
| 20260503030045 | 38 | 276 | 0.0 | 0.0 | 0.00 | 0.03 | 0.03 | 86 | 1017.6 |
| 20260503024535 | 38 | 276 | 0.0 | 0.0 | 0.00 | 0.03 | 0.03 | 85 | 1017.7 |
| 20260503023035 | 38 | 276 | 0.0 | 0.0 | 0.00 | 0.03 | 0.03 | 84 | 1017.9 |
| 20260503021534 | 39 | 276 | 0.0 | 0.0 | 0.00 | 0.03 | 0.03 | 82 | 1018.0 |
| 20260503020036 | 39 | 276 | 0.0 | 0.0 | 0.00 | 0.03 | 0.03 | 82 | 1017.9 |
| 20260503014533 | 39 | 276 | 0.0 | 0.0 | 0.00 | 0.03 | 0.03 | 81 | 1017.7 |
| 20260503013037 | 40 | 275 | 0.0 | 0.0 | 0.00 | 0.03 | 0.03 | 79 | 1017.8 |
| 20260503011534 | 40 | 276 | 0.0 | 0.0 | 0.00 | 0.03 | 0.03 | 77 | 1017.7 |
| 20260503010035 | 40 | 277 | 0.0 | 0.0 | 0.00 | 0.03 | 0.03 | 76 | 1017.6 |
| 20260503004531 | 41 | 278 | 0.0 | 0.0 | 0.00 | 0.03 | 0.03 | 73 | 1017.7 |
| 20260503003029 | 41 | 281 | 0.0 | 0.0 | 0.00 | 0.03 | 0.03 | 70 | 1017.5 |